{"data":{"norad_id":53135,"intl_designator":"2022-083D","name":"STARLINK-4023","alt_names":[],"object_type":"PAYLOAD","status":"ACTIVE","operator":null,"country":"US","launch_date":"2022-07-17","launch_site_code":"AFETR","launch_vehicle":null,"mission":null,"orbit_class":"UNKNOWN","rcs_meters":null,"size_class":null,"mass_kg":null,"dimensions":null,"purposes":["comms"],"wikipedia_slug":null,"has_3d_model":false,"image_url":null,"decayed_at":null,"tle_current":{"epoch":"2026-05-24T20:35:40.588224Z","epoch_age_seconds":98010,"freshness":"FRESH","line1":"1 53135U 22083D   26144.85810866 -.00000213  00000+0  47255-5 0  9995","line2":"2 53135  53.2143 192.1876 0001111  86.2711 273.8408 15.08837416213708","mean_motion":15.08837416,"eccentricity":0.0001111,"inclination_deg":53.2143,"raan_deg":192.1876,"arg_perigee_deg":86.2711,"mean_anomaly_deg":273.8408,"bstar":4.7255e-6,"rev_number":21370,"period_min":95.437718121911,"perigee_km":538.98270984092,"apogee_km":540.51986461834,"semimajor_km":6917.8882872296,"source":"CELESTRAK","updated_at":"2026-05-25T13:38:17.315958Z"}}}